Home   Weather   Queens   Past weeks
Flag for USA

Past Weather in Queens, New York, USA — Yesterday and Last 2 Weeks

Now
60 °F

Cool.


Feels Like: 60 °F
Forecast: 68 / 56 °F
Wind: No wind

Location: MADIS Weather Station F1075 (APRSWXNET)

Current Time: May 25, 2019 at 1:43:40 am

Latest Report: May 25, 2019 at 12:41 am


Visibility: N/A

Pressure: 30.01 "Hg

Humidity: 74%

Dew Point: 52 °F

Location of QueensLocation

Past Weather in Queens — Graph

°F

Queens Temperature Yesterday

Maximum temperature yesterday: 75 °F (at 2:21 pm)
Minimum temperature yesterday: 61 °F (at 11:21 pm)
Average temperature yesterday: 68 °F

High & Low Weather Summary for the Past Weeks

 TemperatureHumidityPressure
High90 °F (May 20, 1:31 pm)99% (May 12, 6:11 am)30.13 "Hg (May 12, 6:11 am)
Low43 °F (May 12, 7:11 pm)27% (May 22, 4:31 pm)29.58 "Hg (May 20, 5:21 pm)
Average61 °F75%29.84 "Hg
* Reported May 10 12:11 am — May 25 12:21 am, Queens. Weather by CustomWeather, © 2019

Note: Actual official high and low records may vary slightly from our data, if they occured in-between our weather recording intervals... More about our weather records

Advertising

Queens Weather History for the Previous 24 Hours

Scroll right to see more
 ConditionsComfort  
Time TempWeatherWind HumidityBarometerVisibility
12:21 am
Sat, May 25
60 °FCool.No wind73%30.01 "HgN/A
11:41 pm
Fri, May 24
61 °FCool.No wind72%30.01 "HgN/A
11:21 pm61 °FCool.No wind70%30.01 "HgN/A
10:51 pm62 °FCool.No wind68%30.01 "HgN/A
10:41 pm62 °FCool.No wind68%30.01 "HgN/A
10:21 pm63 °FMild.No wind67%30.00 "HgN/A
9:31 pm64 °FMild.No wind64%29.99 "HgN/A
8:31 pm66 °FMild.No wind62%29.97 "HgN/A
8:01 pm68 °FMild.No wind59%29.95 "HgN/A
7:41 pm69 °FMild.1 mph58%29.94 "HgN/A
7:21 pm69 °FMild.1 mph57%29.92 "HgN/A
7:11 pm70 °FMild.1 mph56%29.92 "HgN/A
6:31 pm70 °FMild.No wind55%29.90 "HgN/A
5:51 pm72 °FMild.3 mph53%29.87 "HgN/A
5:31 pm72 °FMild.3 mph54%29.87 "HgN/A
5:21 pm72 °FMild.1 mph54%29.86 "HgN/A
4:41 pm73 °FMild.2 mph53%29.85 "HgN/A
4:31 pm73 °FMild.2 mph52%29.84 "HgN/A
4:11 pm73 °FMild.3 mph52%29.83 "HgN/A
3:11 pm75 °FMild.3 mph50%29.82 "HgN/A
2:21 pm75 °FMild.4 mphN/A29.81 "HgN/A
1:51 pm74 °FMild.3 mph53%29.80 "HgN/A
1:41 pm73 °FMild.2 mph53%29.80 "HgN/A
1:31 pm73 °FMild.2 mph53%29.81 "HgN/A
1:11 pm74 °FMild.4 mph50%29.79 "HgN/A
12:41 pm74 °FMild.3 mph51%29.78 "HgN/A
11:11 am73 °FMild.3 mph53%29.76 "HgN/A
10:21 am71 °FMild.2 mph55%29.75 "HgN/A
10:11 am70 °FMild.4 mph56%29.75 "HgN/A
9:21 am69 °FMild.4 mph59%29.74 "HgN/A
9:01 am68 °FMild.3 mph61%29.75 "HgN/A
8:31 am67 °FMild.2 mph63%29.74 "HgN/A
7:21 am67 °FMild.3 mph68%29.74 "HgN/A
7:11 am67 °FMild.2 mph70%29.74 "HgN/A
6:21 am66 °FMild.2 mph81%29.71 "HgN/A
5:41 am66 °FMild.1 mph87%29.70 "HgN/A
5:31 am66 °FMild.No wind88%29.69 "HgN/A
5:11 am66 °FMild.No wind91%29.69 "HgN/A
4:41 am66 °FMild.1 mph98%29.68 "HgN/A
4:31 am66 °FMild.1 mph99%29.68 "HgN/A
4:11 am66 °FMild.No wind99%29.68 "HgN/A
3:21 am67 °FMild.No wind99%29.68 "HgN/A
3:11 am67 °FMild.No wind99%29.68 "HgN/A
2:31 am67 °FMild.No wind99%29.68 "HgN/A
2:01 am68 °FMild.1 mph99%29.69 "HgN/A
1:41 am67 °FMild.No wind99%29.69 "HgN/A
1:31 am67 °FMild.No wind99%29.70 "HgN/A
1:11 am66 °FMild.No wind99%29.69 "HgN/A
Weather by CustomWeather, © 2019

See weather overview